Probability
0 0 0 0 0 0 0 0 0 0 0 0 0 0 0 0 0 0 0 0 0 0 0 0 0 0 0 0 0 0 0 0 0 0 0 0 0 0 0 0 0 0 0
0 0 0 0 0 0 0 0 0 0 0 0 0 0 0 0 0 0 0 0 0 0 0 0 0 0 0 0 0 0 0 0 0 0 0 0 0 0 0 0 0 0 0
0 0 0 0 0 0 0 0 0 0 0 0 0 0 0 0 0 0 0 0 0 0 0 0 0 0 0 0 0 0 0 0 0 0 0 0 0 0 0 0 0 0 0
0 0 0 0 0 0 0 0 0 0 0 0 0 0 0 0 0 0 0 0 0 0 0 0 0 0 0 0 0 0 0 0 0 0 0 0 0 0 0 0 0 0 0
0 0 0 0 0 0 0 0 0 0 0 0 0 0 0 0 0 0 0 0 0 0 0 0 0 0 0 0 0 0 0 0 0 0 0 0 0 0 0 0 0 0 0
0 0 0 0 0 0 0 0 0 0 0 0 0 0 0 0 0 0 0 0 0 0 0 0 0 0 0 0 0 0 0 0 0 0 0 0 0 0 0 0 0 0 0
0 0 0 0 0 0 0 0 0 0 0 0 0 0 0 0 0 0 0 0 0 0 0 0 0 0 0 0 0 0 0 0 0 0 0 0 0 0 0 0 0 0 0
0 0 0 0 0 0 0 0 0 0 0 0 0 0 0 0 0 0 0 0 0 0 0 0 0 0 0 0 0 0 0 0 0 0 0 0 0 0 0 0 0 0 0
0 0 0 0 0 0 0 0 0 0 0 0 0 0 0 0 0 0 0 0 0 0 0 0 0 0 0 0 0 0 0 0 0 0 0 0 0 0 0 0 0 0 0
0 0 0 0 0 0 0 0 0 0 0 0 0 0 0 0 0 0 0 0 0 0 0 0 0 0 0 0 0 0 0 0 0 0 0 0 0 0 0 0 0 0 0
0 0 0 0 0 0 0 0 0 0 0 0 0 0 0 0 0 0 0 0 0 0 0 0 0 0 0 0 0 0 0 0 0 0 0 0 0 0 0 0 0 0 0
0 0 0 0 0 0 0 0 0 0 0 0 0 0 0 0 0 0 0 0 0 0 0 0 0 0 0 0 0 0 0 0 0 0 0 0 0 0 0 0 0 0 0
0 0 0 0 0 0 0 0 0 0 0 0 0 0 0 0 0 0 0 0 0 0 0 0 0 0 0 0 0 0 0 0 0 0 0 0 0 0 0 0 0 0 0
0 0 0 0 0 0 0 0 0 0 0 0 0 0 0 0 0 0 0 0 0 0 0 0 0 0 0 0 0 0 0 0 0 0 0 0 0 0 0 0 0 0 0
0 0 0 0 0 0 0 0 0 0 0 0 0 0 0 0 0 0 0 0 0 0 0 0 0 0 0 0 0 0 0 0 0 0 0 0 0 0 0 0 0 0 0
0 0 0 0 0 0 0 0 0 0 0 0 0 0 0 0 0 0 0 0 0 0 0 0 0 0 0 0 0 0 0 0 0 0 0 0 0 0 0 0 0 0 0
0 0 0 0 0 0 0 0 0 0 0 0 0 0 0 0 0 0 0 0 0 0 0 0 0 0 0 0 0 0 0 0 0 0 0 0 0 0 0 0 0 0 0
0 0 0 0 0 0 0 0 0 0 0 0 0 0 0 0 0 0 0 0 0 0 0 0 0 0 0 0 0 0 0 0 0 0 0 0 0 0 0 0 0 0 0
0 0 0 0 0 0 0 0 0 0 0 0 0 0 0 0 0 0 0 0 0 0 0 0 0 0 0 0 0 0 0 0 0 0 0 0 0 0 0 0 0 0 0
0 0 0 0 0 0 0 0 0 0 0 0 0 0 0 0 0 0 0 0 0 0 0 0 0 0 0 0 0 0 0 0 0 0 0 0 0 0 0 0 0 0 0
0 0 0 0 0 0 0 0 0 0 0 0 0 0 0 0 0 0 0 0 0 0 0 0 0 0 0 0 0 0 0 0 0 0 0 0 0 0 0 0 0 0 0
0 0 0 0 0 0 0 0 0 0 0 0 0 0 0 0 0 0 0 0 0 0 0 0 0 0 0 0 0 0 0 0 0 0 0 0 0 0 0 0 0 0 0
0 0 0 0 0 0 0 0 0 0 0 0 0 0 0 0 0 0 0 0 0 0 0 0 0 0 0 0 0 0 0 0 0 0 0 0 0 0 0 0 0 0 0
0 0 0 0 0 0 0 0 0 0 0 0 0 0 0 0 0 0 0 0 0 0 0 0 0 0 0 0 0 0 0 0 0 0 0 0 0 0 0 0 0 0 0
0 0 0 0 0 0 0 0 0 0 0 0 0 0 0 0 0 0 0 0 0 0 0 0 0 0 0 0 0 0 0 0 0 0 0 0 0 0 0 0 0 0 0
0 0 0 0 0 0 0 0 0 0 0 0 0 0 0 0 0 0 0 0 0 0 0 0 0 0 0 0 0 0 0 0 0 0 0 0 0 0 0 0 0 0 0
Height
5701 5703 5705 5707 5709 5711 5712 5714 5715 5716 5717 5717 5718 5718 5719 5719 5719 5718 5718 5717 5716 5715 5714 5713 5711 5709 5707 5705 5703 5701 5698 5697 5695 5693 5691 5688 5686 5685 5683 5681 5680 5678 5677
5692 5694 5695 5697 5699 5700 5701 5703 5704 5705 5706 5706 5707 5707 5707 5707 5707 5707 5706 5706 5705 5703 5702 5701 5699 5697 5695 5693 5691 5689 5687 5685 5683 5682 5679 5677 5676 5674 5673 5671 5670 5669 5668
5682 5683 5685 5686 5688 5689 5690 5692 5692 5693 5694 5695 5695 5695 5695 5696 5695 5695 5695 5694 5693 5692 5690 5689 5688 5686 5684 5682 5680 5678 5675 5673 5672 5670 5668 5667 5665 5664 5662 5661 5660 5659 5658
5671 5672 5674 5675 5677 5678 5679 5680 5681 5682 5682 5683 5684 5684 5684 5684 5684 5683 5683 5682 5681 5680 5679 5677 5676 5674 5672 5670 5668 5666 5664 5663 5661 5659 5658 5656 5655 5653 5652 5651 5650 5650 5649
5660 5661 5662 5664 5665 5666 5667 5668 5669 5670 5671 5672 5672 5672 5672 5672 5672 5672 5671 5670 5669 5668 5667 5666 5664 5662 5661 5659 5657 5655 5654 5652 5650 5649 5647 5646 5645 5644 5643 5642 5641 5640 5640
5648 5649 5651 5652 5653 5655 5656 5657 5658 5659 5659 5660 5660 5661 5661 5661 5661 5660 5660 5659 5658 5657 5656 5654 5653 5651 5650 5648 5646 5645 5643 5642 5640 5639 5637 5636 5635 5634 5633 5632 5632 5632 5632
5636 5637 5639 5640 5641 5643 5644 5645 5646 5647 5648 5649 5649 5649 5649 5649 5649 5649 5648 5648 5647 5645 5644 5643 5642 5640 5639 5637 5636 5634 5633 5632 5630 5629 5628 5627 5626 5625 5624 5624 5623 5623 5623
5624 5626 5627 5628 5630 5631 5632 5633 5634 5635 5636 5637 5638 5638 5638 5638 5638 5638 5637 5636 5635 5634 5633 5632 5631 5630 5628 5627 5626 5624 5623 5622 5621 5619 5618 5617 5617 5616 5615 5615 5615 5615 5615
5613 5614 5615 5616 5618 5619 5620 5621 5622 5624 5625 5625 5626 5627 5627 5627 5627 5627 5626 5625 5624 5623 5622 5621 5620 5619 5618 5617 5616 5615 5614 5613 5611 5610 5609 5608 5608 5607 5607 5607 5607 5607 5607
5601 5602 5603 5604 5606 5607 5608 5610 5611 5612 5613 5614 5614 5615 5615 5615 5615 5615 5614 5614 5613 5612 5611 5611 5610 5609 5608 5607 5606 5605 5604 5603 5602 5601 5600 5600 5599 5599 5599 5598 5598 5598 5598
5589 5590 5591 5592 5593 5595 5596 5597 5598 5600 5601 5602 5602 5603 5603 5603 5604 5603 5603 5602 5602 5601 5600 5600 5599 5598 5598 5597 5596 5596 5595 5594 5593 5592 5592 5591 5591 5590 5590 5590 5590 5590 5590
5576 5577 5578 5579 5581 5582 5583 5585 5586 5587 5589 5590 5590 5591 5591 5592 5592 5592 5591 5591 5591 5590 5590 5589 5589 5588 5587 5587 5586 5586 5585 5584 5584 5583 5583 5583 5582 5582 5582 5581 5581 5581 5581
5564 5565 5566 5567 5568 5570 5571 5572 5574 5575 5576 5577 5578 5579 5579 5580 5580 5580 5580 5580 5580 5579 5579 5579 5578 5578 5577 5577 5577 5576 5576 5575 5575 5574 5574 5574 5574 5573 5573 5573 5572 5572 5572
5552 5553 5554 5555 5556 5557 5559 5560 5562 5563 5564 5565 5566 5567 5568 5568 5569 5569 5569 5569 5569 5569 5569 5568 5568 5568 5568 5567 5567 5567 5566 5566 5565 5565 5565 5565 5564 5564 5564 5564 5564 5563 5563
5540 5541 5541 5542 5543 5545 5546 5548 5549 5551 5552 5553 5554 5555 5556 5557 5558 5558 5558 5558 5558 5558 5558 5558 5558 5558 5557 5557 5557 5557 5557 5556 5556 5556 5556 5556 5555 5555 5555 5554 5554 5554 5553
5528 5529 5529 5530 5531 5533 5534 5536 5537 5539 5540 5541 5543 5544 5545 5546 5546 5547 5547 5547 5547 5548 5548 5548 5547 5547 5547 5547 5547 5547 5547 5547 5547 5547 5546 5546 5546 5545 5545 5544 5544 5543 5543
5515 5516 5517 5518 5519 5520 5522 5523 5525 5526 5528 5529 5530 5532 5533 5534 5535 5535 5536 5536 5537 5537 5537 5537 5537 5536 5536 5536 5536 5536 5536 5536 5537 5536 5536 5536 5535 5535 5534 5534 5533 5533 5532
5503 5503 5504 5506 5507 5508 5510 5511 5513 5514 5516 5517 5518 5520 5521 5522 5523 5524 5524 5525 5526 5526 5526 5526 5526 5526 5525 5525 5526 5526 5526 5526 5526 5526 5525 5525 5524 5524 5523 5523 5522 5521 5521
5489 5490 5491 5493 5494 5496 5497 5499 5500 5502 5504 5505 5506 5508 5509 5510 5511 5512 5513 5514 5515 5515 5515 5515 5515 5515 5515 5515 5515 5515 5515 5515 5514 5514 5514 5513 5513 5513 5512 5511 5511 5510 5509
5476 5477 5478 5480 5481 5483 5484 5486 5488 5490 5491 5493 5494 5496 5497 5498 5499 5500 5501 5502 5503 5503 5503 5503 5503 5503 5503 5503 5503 5503 5503 5503 5503 5502 5502 5502 5501 5501 5500 5500 5499 5498 5497
5463 5464 5465 5466 5468 5470 5472 5474 5476 5477 5479 5481 5482 5483 5485 5486 5487 5488 5489 5490 5491 5491 5491 5492 5492 5492 5492 5492 5492 5492 5492 5492 5491 5491 5490 5490 5489 5489 5488 5487 5487 5485 5484
5450 5451 5452 5454 5455 5457 5459 5461 5463 5465 5467 5469 5470 5471 5472 5474 5475 5476 5477 5478 5479 5479 5480 5480 5480 5481 5481 5481 5481 5480 5480 5480 5479 5479 5478 5478 5477 5477 5476 5475 5474 5473 5471
5438 5439 5440 5441 5443 5445 5447 5449 5451 5453 5455 5457 5458 5459 5461 5462 5463 5464 5465 5466 5467 5467 5468 5469 5469 5469 5469 5469 5469 5469 5469 5468 5467 5466 5466 5465 5465 5464 5463 5462 5461 5459 5458
5426 5427 5428 5429 5431 5433 5435 5437 5440 5442 5443 5445 5446 5448 5449 5450 5451 5452 5453 5454 5455 5456 5456 5457 5457 5457 5457 5457 5457 5457 5456 5456 5455 5454 5454 5453 5453 5452 5451 5449 5448 5446 5444
5414 5414 5416 5417 5419 5421 5423 5426 5428 5430 5432 5433 5435 5436 5437 5439 5440 5441 5442 5443 5444 5444 5445 5445 5446 5446 5446 5446 5445 5445 5444 5444 5443 5443 5442 5441 5440 5439 5438 5437 5435 5433 5432
5402 5403 5404 5406 5408 5410 5412 5414 5416 5418 5420 5422 5423 5425 5426 5427 5428 5430 5431 5432 5432 5433 5434 5434 5434 5434 5434 5434 5434 5433 5433 5432 5431 5431 5430 5429 5428 5427 5425 5424 5422 5421 5419
Wind_Speed
41 41 41 42 43 44 44 45 45 45 45 45 46 46 46 46 46 46 46 46 47 47 47 47 47 47 47 47 47 47 47 47 46 45 44 43 42 42 41 40 40 38 37
41 41 42 43 43 44 45 45 46 46 47 47 48 47 47 47 47 46 46 46 46 46 46 46 46 46 46 47 46 46 46 46 45 44 43 42 42 41 40 39 38 37 35
42 42 43 43 44 45 45 46 46 47 47 48 47 47 47 47 47 47 47 47 47 46 46 46 46 46 46 46 45 45 44 44 43 42 41 41 40 39 39 38 37 36 34
43 44 44 45 45 46 46 46 47 46 46 46 46 46 46 46 46 47 46 46 46 46 46 46 45 45 45 44 44 43 43 42 41 40 39 39 38 38 38 37 36 34 33
44 45 45 45 45 46 46 46 46 45 45 46 46 46 46 46 46 45 45 45 45 45 44 44 44 44 43 43 42 42 42 41 40 39 38 38 38 37 36 35 34 33 31
45 45 46 46 45 45 45 44 44 44 44 44 44 44 44 44 44 44 44 44 44 43 43 43 43 42 42 41 40 40 39 39 39 38 37 37 36 35 34 33 32 31 30
45 45 45 45 45 45 44 44 44 43 43 42 42 43 43 43 43 43 43 43 43 42 42 42 41 41 40 40 39 38 38 37 36 36 35 35 34 33 32 31 30 30 30
45 45 45 45 45 44 44 44 44 43 43 42 42 42 43 43 43 43 42 42 42 42 42 41 40 39 38 37 37 36 36 35 35 35 34 33 33 32 31 30 29 29 29
45 45 45 45 45 44 44 44 43 43 43 43 43 43 43 43 43 42 41 41 41 41 41 40 39 38 37 36 35 35 35 34 34 34 33 32 31 31 30 29 29 28 28
44 44 44 44 44 44 43 43 43 42 42 43 43 43 43 42 42 42 42 41 41 40 39 38 38 37 36 35 35 34 34 33 33 33 32 31 30 30 29 29 28 28 28
43 43 43 43 44 44 44 43 43 43 43 43 43 43 43 42 42 41 41 40 40 39 38 38 37 36 35 35 34 34 33 33 32 31 31 30 29 29 29 29 28 28 28
42 43 43 43 43 43 43 43 43 43 43 42 42 42 42 41 41 40 40 39 38 38 37 36 36 36 35 34 33 33 33 32 31 30 30 29 29 29 29 29 29 29 29
41 42 42 42 42 42 43 43 43 42 42 42 42 41 41 40 39 39 38 38 37 37 36 36 35 34 34 33 33 32 32 31 31 30 30 30 29 29 29 29 29 29 30
40 40 41 41 42 41 41 41 41 41 41 40 40 40 39 38 38 37 37 36 35 35 35 34 34 33 33 33 32 32 31 31 30 30 30 30 30 30 30 30 30 30 30
38 38 39 40 40 40 40 40 40 39 39 39 39 39 38 37 36 36 35 35 34 34 34 34 34 34 34 34 33 33 32 31 31 31 31 31 31 31 31 31 32 32 32
38 38 38 38 39 39 39 39 39 39 39 39 38 38 37 37 37 36 35 35 35 35 34 34 34 34 34 34 33 33 32 32 32 32 32 32 32 32 32 33 33 33 33
38 38 38 38 38 38 38 38 38 38 38 38 38 38 38 37 37 36 36 35 35 34 34 34 34 34 34 34 33 33 34 33 33 33 33 33 33 33 34 34 34 34 34
38 37 37 37 37 37 38 38 37 37 38 38 38 37 37 37 36 36 36 35 34 34 34 34 34 34 34 34 34 34 34 34 34 34 35 35 35 35 35 35 35 35 35
38 38 37 37 37 37 37 38 38 37 37 37 37 37 37 37 37 37 36 35 35 35 35 35 34 34 34 34 35 35 35 35 35 36 36 35 35 35 35 35 35 36 36
38 37 37 37 37 37 37 37 38 37 37 37 36 37 37 37 37 37 36 36 35 35 35 35 35 35 35 35 35 35 35 35 35 35 36 36 36 36 36 36 37 37 37
36 36 37 37 37 37 37 36 36 36 36 36 36 36 36 37 37 37 36 36 35 35 35 35 35 34 34 34 34 35 35 35 36 36 36 37 37 37 37 37 38 38 39
34 34 35 36 36 36 36 35 35 35 35 35 36 36 36 36 36 36 36 35 35 35 34 34 34 34 34 34 35 35 35 36 36 36 36 37 37 37 38 38 38 39 40
35 34 34 34 34 34 34 35 35 35 35 35 35 35 35 35 35 35 35 34 34 34 34 34 34 34 35 35 35 35 35 36 36 36 36 36 37 37 38 38 39 39 39
34 34 34 34 34 34 33 34 34 34 34 34 34 34 34 34 34 34 33 33 34 34 34 34 34 34 35 35 35 35 35 35 35 36 36 36 37 37 38 38 39 39 39
33 33 33 34 34 34 33 33 33 34 34 34 33 33 33 33 33 33 32 32 33 33 33 33 33 33 34 34 34 34 34 34 34 35 35 36 37 37 38 38 38 38 39
32 32 32 33 33 34 34 34 34 33 33 32 32 32 32 32 32 32 32 32 32 32 32 32 32 32 32 32 33 33 33 34 34 35 35 36 37 37 37 38 38 39 39
Wind_Direction
255 256 257 258 259 260 262 263 264 266 267 269 271 272 273 274 275 276 278 279 280 281 282 283 284 285 286 287 288 288 289 288 288 288 287 287 286 286 285 286 286 285 286
256 257 257 258 259 261 262 263 265 267 268 270 272 273 273 274 275 277 278 279 280 281 282 284 285 286 288 288 288 288 288 288 288 287 287 286 285 285 284 285 285 284 284
256 257 258 259 260 261 263 264 266 267 269 270 271 272 273 274 276 277 278 279 280 281 283 284 285 286 287 288 288 288 289 288 288 287 286 286 285 285 284 284 284 283 281
257 258 260 261 261 262 263 264 265 267 268 269 270 271 272 274 276 277 278 280 280 281 283 284 285 286 286 287 287 288 288 288 287 287 286 285 285 285 285 284 283 281 280
258 259 260 260 261 262 263 263 264 265 267 268 269 271 272 274 275 276 278 279 280 282 283 284 284 285 285 286 287 287 287 286 286 286 286 285 285 285 284 283 281 280 278
259 259 260 260 261 262 262 263 264 265 267 268 269 270 271 273 275 277 278 279 281 282 283 283 284 285 285 286 286 286 286 286 286 286 285 285 285 284 283 281 279 277 276
259 260 260 260 261 261 262 263 264 265 266 268 269 270 272 274 276 277 278 279 280 281 282 283 283 284 285 285 285 285 285 286 286 286 285 285 284 283 281 279 278 277 275
259 260 260 260 261 262 263 263 264 265 267 268 269 271 272 274 276 277 278 279 280 281 282 282 283 283 283 284 284 284 285 285 286 285 285 285 283 282 280 278 277 275 276
259 260 260 261 261 262 263 263 264 265 266 267 269 271 272 274 275 276 277 279 279 280 280 281 282 281 282 283 284 284 284 284 285 285 285 283 282 280 278 277 276 275 275
261 261 261 261 261 262 262 263 263 264 265 267 269 270 271 273 274 275 276 277 278 279 279 279 280 280 281 282 283 283 283 283 284 284 283 282 281 279 277 277 276 275 275
262 262 262 261 261 261 262 262 263 264 265 267 268 270 271 271 273 275 276 277 277 278 277 278 279 279 279 281 282 282 282 282 282 282 281 280 280 279 278 277 276 276 276
263 263 262 261 261 261 261 261 262 263 265 266 267 269 270 271 272 273 275 276 276 276 276 276 277 278 278 279 280 280 280 280 280 280 278 277 277 277 277 277 276 276 276
264 264 263 262 261 261 261 261 262 263 264 265 266 267 268 269 271 272 273 274 275 275 275 275 276 276 277 277 277 278 278 278 278 277 276 276 277 277 276 276 277 277 277
265 264 263 262 261 261 261 262 262 263 263 264 265 266 267 268 270 271 272 273 274 273 273 275 275 275 276 276 276 276 277 276 276 275 275 275 276 276 276 277 277 278 278
265 264 263 261 261 261 261 261 261 262 262 263 263 264 265 266 268 269 270 272 273 273 274 274 274 274 275 275 275 275 275 275 275 275 275 275 275 277 278 278 278 278 278
265 264 262 261 261 261 260 260 261 261 262 262 263 264 264 265 266 267 269 271 272 272 273 273 273 273 274 274 273 273 273 274 275 275 274 274 275 276 277 278 278 278 279
265 263 261 261 260 260 259 259 259 260 261 262 262 262 264 264 265 266 268 269 270 271 273 273 272 272 272 272 272 272 272 273 274 275 275 275 276 277 277 277 277 278 279
265 264 262 260 260 259 259 258 259 259 260 261 261 262 263 264 265 265 266 268 270 270 271 272 272 272 272 271 271 272 273 273 273 273 274 275 276 276 277 277 278 279 280
265 263 261 261 260 259 258 258 258 258 259 261 261 261 262 263 264 265 266 267 268 269 270 270 271 271 271 271 272 272 272 273 273 273 274 275 276 276 277 277 279 279 281
265 263 261 261 259 259 258 258 258 258 259 259 260 261 261 263 264 265 265 266 267 268 268 269 270 271 271 272 272 272 273 273 273 273 274 275 275 276 276 278 279 280 281
265 263 261 261 259 258 259 258 258 258 258 259 259 261 262 263 264 264 265 265 265 266 267 268 269 270 271 272 273 273 273 274 274 274 274 274 275 276 277 278 279 280 281
267 265 262 261 259 258 257 257 257 258 258 259 259 260 262 263 263 263 264 264 265 265 266 267 269 270 271 272 273 273 274 275 275 275 275 275 276 277 278 279 280 281 282
267 265 263 261 259 257 257 257 258 258 258 259 260 261 261 262 262 262 262 263 264 265 266 267 268 270 271 272 273 273 275 275 274 275 275 276 277 278 278 279 281 282 283
267 265 262 260 259 257 256 256 257 257 258 259 259 260 261 262 262 261 261 262 264 265 266 267 269 270 271 272 272 274 275 275 275 275 276 277 278 278 279 280 282 282 283
267 264 261 259 258 257 256 256 257 258 258 258 259 259 259 260 261 261 261 263 264 265 266 268 269 270 271 272 273 274 274 275 275 276 277 278 280 280 280 281 282 283 283
267 264 261 259 259 258 256 255 256 257 257 257 257 258 259 259 260 261 261 263 264 265 267 268 269 270 272 273 273 274 274 275 276 277 279 280 281 280 280 281 282 283 284